User: anonymous   Login
Location: Caltech
(34.1382°N, 118.1253°W)
Time: 11:17:42
(UTC-07:00)
Language:

JAS-2 - Orbit

View from above orbital plane
View from above orbital plane
View from above satellite
View from above satellite

Ground track
Ground track

The orbit data is extracted from the following two-line orbital elements,

1 24278U 96046B   15117.50906396  .00000025  00000-0  61975-4 0  9990
2 24278 098.5356 093.1695 0350076 202.0614 271.7798 13.53050076923173
Epoch (UTC): 27 April 2015 12:13:03
Eccentricity: 0.0350076
inclination: 98.5356°
perigee height: 800 km
apogee height: 1321 km
right ascension of ascending node: 93.1695°
argument of perigee: 202.0614°
revolutions per day: 13.53050076
mean anomaly at epoch: 271.7798°
orbit number at epoch: 92317

The dashed part of the orbit path shows where the satellite is in the earth's shadow,  

DLR